QPF
0.02 0.02 0.03 0.03 0.03 0.04 0.04 0.05 0.04 0.02 0.02 0.01 0.01 0.01 0.01 0.01 0.01 0.02 0.02 0.02 0.02 0.02 0.02 0.03 0.04 0.04 0.05 0.05 0.05 0.05 0.05 0.05 0.05 0.04 0.03 0.03 0.04 0.04 0.04 0.04 0.04 0.04 0.04
0.02 0.02 0.02 0.02 0.03 0.03 0.03 0.03 0.03 0.03 0.02 0.01 0.01 0.01 0.01 0.01 0.01 0.01 0.02 0.02 0.03 0.03 0.03 0.03 0.03 0.04 0.05 0.06 0.06 0.07 0.06 0.06 0.06 0.06 0.05 0.05 0.05 0.04 0.04 0.04 0.04 0.03 0.03
0.01 0.01 0.01 0.01 0.01 0.02 0.02 0.02 0.02 0.02 0.02 0.02 0.02 0.01 0.01 0.02 0.02 0.01 0.01 0.02 0.02 0.02 0.02 0.03 0.03 0.03 0.04 0.04 0.05 0.05 0.05 0.05 0.06 0.06 0.06 0.07 0.06 0.05 0.04 0.04 0.03 0.03 0.02
0.01 0.01 0.01 0.01 0.01 0.01 0.01 0.01 0.01 0.02 0.02 0.02 0.02 0.02 0.02 0.02 0.02 0.02 0.01 0.01 0.02 0.02 0.02 0.02 0.03 0.03 0.04 0.04 0.04 0.04 0.04 0.05 0.05 0.05 0.05 0.06 0.07 0.06 0.05 0.05 0.04 0.03 0.03
0.01 0.01 0.01 0.00 0.01 0.01 0.01 0.01 0.01 0.01 0.01 0.02 0.02 0.02 0.02 0.02 0.02 0.03 0.02 0.02 0.02 0.02 0.02 0.02 0.02 0.03 0.04 0.04 0.04 0.04 0.04 0.04 0.04 0.04 0.05 0.06 0.07 0.07 0.06 0.05 0.04 0.04 0.04
0.00 0.01 0.01 0.01 0.01 0.01 0.01 0.01 0.01 0.01 0.01 0.02 0.02 0.02 0.02 0.02 0.02 0.03 0.02 0.02 0.02 0.02 0.02 0.02 0.02 0.02 0.03 0.03 0.03 0.03 0.04 0.04 0.04 0.04 0.04 0.05 0.05 0.06 0.05 0.05 0.05 0.05 0.05
0.00 0.01 0.01 0.01 0.01 0.01 0.01 0.01 0.01 0.01 0.02 0.02 0.02 0.02 0.02 0.02 0.03 0.03 0.03 0.02 0.02 0.02 0.02 0.02 0.02 0.02 0.03 0.03 0.03 0.03 0.03 0.03 0.03 0.03 0.03 0.03 0.04 0.05 0.04 0.05 0.05 0.05 0.05
0.00 0.00 0.00 0.01 0.01 0.01 0.01 0.01 0.01 0.01 0.01 0.02 0.03 0.03 0.02 0.03 0.03 0.04 0.04 0.03 0.02 0.02 0.02 0.02 0.02 0.02 0.03 0.03 0.03 0.03 0.02 0.02 0.02 0.02 0.03 0.03 0.03 0.03 0.03 0.04 0.04 0.04 0.04
0.01 0.01 0.01 0.01 0.01 0.01 0.01 0.01 0.01 0.01 0.01 0.01 0.01 0.02 0.02 0.03 0.03 0.04 0.04 0.04 0.03 0.02 0.02 0.02 0.02 0.03 0.04 0.05 0.03 0.03 0.03 0.03 0.02 0.02 0.03 0.03 0.03 0.03 0.03 0.03 0.04 0.05 0.05
0.01 0.01 0.01 0.01 0.01 0.02 0.01 0.01 0.01 0.01 0.01 0.01 0.01 0.01 0.01 0.01 0.02 0.03 0.03 0.03 0.02 0.02 0.01 0.02 0.02 0.03 0.04 0.05 0.04 0.03 0.03 0.03 0.03 0.03 0.03 0.03 0.03 0.03 0.03 0.02 0.03 0.04 0.04
0.01 0.01 0.01 0.01 0.01 0.02 0.01 0.01 0.01 0.01 0.01 0.01 0.01 0.01 0.01 0.01 0.01 0.02 0.03 0.03 0.03 0.02 0.02 0.02 0.02 0.02 0.04 0.05 0.05 0.04 0.03 0.03 0.03 0.03 0.04 0.04 0.03 0.03 0.02 0.02 0.02 0.02 0.03
0.01 0.01 0.01 0.01 0.01 0.01 0.01 0.01 0.01 0.01 0.01 0.01 0.01 0.01 0.01 0.02 0.01 0.01 0.02 0.02 0.02 0.02 0.01 0.01 0.01 0.02 0.03 0.05 0.05 0.04 0.03 0.02 0.03 0.03 0.04 0.04 0.04 0.03 0.03 0.02 0.02 0.02 0.02
0.01 0.01 0.01 0.01 0.01 0.01 0.01 0.01 0.01 0.01 0.01 0.01 0.01 0.01 0.01 0.01 0.01 0.01 0.01 0.01 0.01 0.01 0.01 0.01 0.01 0.02 0.02 0.04 0.04 0.04 0.03 0.03 0.03 0.03 0.03 0.03 0.03 0.03 0.03 0.03 0.03 0.02 0.02
0.01 0.01 0.01 0.01 0.01 0.01 0.01 0.01 0.01 0.01 0.01 0.01 0.01 0.01 0.01 0.01 0.01 0.01 0.01 0.01 0.01 0.01 0.01 0.01 0.01 0.01 0.02 0.03 0.04 0.04 0.03 0.03 0.03 0.03 0.03 0.03 0.03 0.03 0.03 0.03 0.04 0.03 0.03
0.00 0.00 0.00 0.00 0.01 0.01 0.01 0.01 0.01 0.01 0.01 0.02 0.01 0.01 0.01 0.01 0.01 0.01 0.02 0.02 0.01 0.01 0.01 0.01 0.01 0.01 0.02 0.03 0.04 0.04 0.04 0.03 0.03 0.03 0.02 0.03 0.03 0.03 0.03 0.02 0.02 0.02 0.03
0.00 0.00 0.00 0.00 0.00 0.01 0.01 0.02 0.02 0.02 0.02 0.01 0.01 0.02 0.02 0.02 0.01 0.01 0.01 0.01 0.01 0.01 0.01 0.01 0.01 0.02 0.02 0.02 0.03 0.03 0.03 0.03 0.03 0.03 0.02 0.03 0.03 0.03 0.02 0.02 0.02 0.02 0.02
0.00 0.00 0.00 0.00 0.00 0.00 0.01 0.01 0.01 0.01 0.01 0.01 0.01 0.01 0.02 0.02 0.01 0.01 0.01 0.01 0.01 0.01 0.02 0.02 0.01 0.01 0.02 0.02 0.02 0.03 0.03 0.03 0.02 0.02 0.02 0.02 0.02 0.02 0.02 0.02 0.02 0.02 0.02
0.00 0.00 0.00 0.00 0.00 0.00 0.00 0.00 0.01 0.01 0.01 0.01 0.01 0.01 0.01 0.01 0.01 0.02 0.02 0.02 0.03 0.03 0.02 0.02 0.02 0.02 0.02 0.02 0.02 0.02 0.02 0.02 0.02 0.02 0.02 0.02 0.02 0.02 0.02 0.02 0.02 0.02 0.02
0.00 0.00 0.00 0.00 0.00 0.00 0.00 0.00 0.01 0.01 0.01 0.01 0.01 0.01 0.01 0.01 0.01 0.01 0.02 0.03 0.03 0.03 0.02 0.02 0.02 0.02 0.02 0.02 0.02 0.02 0.02 0.02 0.02 0.02 0.02 0.02 0.02 0.02 0.02 0.02 0.02 0.02 0.02
0.00 0.01 0.01 0.00 0.01 0.01 0.01 0.01 0.01 0.01 0.01 0.02 0.02 0.02 0.02 0.02 0.02 0.02 0.02 0.03 0.02 0.02 0.02 0.02 0.02 0.02 0.02 0.02 0.02 0.02 0.02 0.02 0.02 0.02 0.02 0.02 0.02 0.02 0.02 0.02 0.02 0.02 0.02
0.00 0.01 0.01 0.01 0.01 0.01 0.01 0.01 0.01 0.02 0.02 0.02 0.02 0.02 0.03 0.02 0.02 0.02 0.02 0.02 0.02 0.02 0.02 0.02 0.02 0.02 0.02 0.02 0.02 0.02 0.02 0.02 0.02 0.02 0.02 0.02 0.02 0.02 0.02 0.02 0.02 0.02 0.02
0.01 0.01 0.01 0.01 0.01 0.02 0.02 0.02 0.03 0.03 0.03 0.03 0.03 0.03 0.03 0.03 0.03 0.03 0.02 0.02 0.02 0.02 0.02 0.02 0.02 0.02 0.02 0.02 0.02 0.02 0.02 0.02 0.02 0.02 0.02 0.02 0.02 0.02 0.02 0.02 0.02 0.02 0.02
0.03 0.03 0.03 0.03 0.03 0.03 0.03 0.04 0.04 0.04 0.04 0.04 0.03 0.03 0.03 0.03 0.03 0.03 0.03 0.02 0.02 0.02 0.02 0.02 0.02 0.02 0.02 0.02 0.02 0.02 0.02 0.02 0.02 0.02 0.02 0.02 0.02 0.02 0.03 0.03 0.02 0.02 0.02
0.04 0.04 0.04 0.04 0.04 0.04 0.04 0.03 0.03 0.03 0.03 0.03 0.03 0.03 0.03 0.02 0.02 0.02 0.02 0.02 0.02 0.02 0.02 0.02 0.02 0.02 0.02 0.02 0.02 0.02 0.02 0.02 0.02 0.03 0.03 0.03 0.03 0.03 0.03 0.03 0.03 0.02 0.03
0.04 0.04 0.03 0.03 0.03 0.03 0.03 0.03 0.03 0.03 0.03 0.03 0.02 0.02 0.02 0.02 0.02 0.02 0.02 0.02 0.02 0.02 0.02 0.02 0.02 0.02 0.02 0.02 0.02 0.02 0.02 0.03 0.03 0.03 0.03 0.04 0.04 0.03 0.03 0.03 0.03 0.03 0.03
0.03 0.03 0.03 0.03 0.03 0.02 0.02 0.02 0.02 0.02 0.02 0.02 0.02 0.01 0.02 0.02 0.02 0.02 0.02 0.02 0.02 0.02 0.02 0.02 0.02 0.02 0.02 0.02 0.02 0.02 0.02 0.02 0.03 0.03 0.03 0.04 0.04 0.04 0.04 0.03 0.03 0.03 0.03
MSLP
1028.61 1028.98 1029.39 1029.79 1030.17 1030.52 1030.82 1031.08 1031.30 1031.48 1031.65 1031.81 1031.97 1032.13 1032.31 1032.49 1032.66 1032.82 1032.94 1033.02 1033.04 1032.99 1032.86 1032.68 1032.45 1032.20 1031.97 1031.80 1031.70 1031.71 1031.82 1032.01 1032.27 1032.53 1032.77 1032.94 1033.01 1032.96 1032.79 1032.52 1032.18 1031.79 1031.40
1029.01 1029.46 1029.91 1030.35 1030.75 1031.10 1031.40 1031.64 1031.84 1032.01 1032.15 1032.28 1032.41 1032.55 1032.70 1032.87 1033.05 1033.22 1033.38 1033.50 1033.56 1033.56 1033.48 1033.33 1033.12 1032.89 1032.65 1032.46 1032.34 1032.32 1032.40 1032.56 1032.80 1033.06 1033.30 1033.48 1033.56 1033.53 1033.39 1033.14 1032.82 1032.46 1032.09
1029.41 1029.92 1030.42 1030.88 1031.29 1031.64 1031.93 1032.16 1032.34 1032.48 1032.59 1032.68 1032.77 1032.88 1033.00 1033.15 1033.32 1033.50 1033.68 1033.84 1033.95 1034.01 1033.99 1033.89 1033.73 1033.52 1033.30 1033.11 1032.98 1032.93 1032.97 1033.11 1033.31 1033.55 1033.77 1033.94 1034.02 1034.00 1033.88 1033.66 1033.36 1033.03 1032.69
1029.78 1030.34 1030.86 1031.34 1031.75 1032.10 1032.38 1032.60 1032.76 1032.88 1032.97 1033.04 1033.10 1033.17 1033.26 1033.38 1033.53 1033.71 1033.91 1034.09 1034.25 1034.36 1034.40 1034.36 1034.26 1034.09 1033.90 1033.72 1033.58 1033.50 1033.51 1033.60 1033.76 1033.95 1034.14 1034.29 1034.37 1034.35 1034.24 1034.05 1033.79 1033.50 1033.19
1030.10 1030.68 1031.21 1031.68 1032.09 1032.43 1032.71 1032.93 1033.10 1033.22 1033.31 1033.37 1033.42 1033.48 1033.55 1033.64 1033.77 1033.93 1034.12 1034.32 1034.51 1034.66 1034.74 1034.76 1034.70 1034.58 1034.42 1034.24 1034.09 1034.00 1033.96 1034.01 1034.11 1034.25 1034.40 1034.52 1034.59 1034.58 1034.50 1034.34 1034.13 1033.88 1033.63
1030.37 1030.94 1031.45 1031.90 1032.29 1032.62 1032.91 1033.15 1033.35 1033.51 1033.63 1033.72 1033.79 1033.84 1033.89 1033.96 1034.06 1034.20 1034.36 1034.55 1034.73 1034.89 1035.01 1035.05 1035.03 1034.94 1034.80 1034.63 1034.48 1034.35 1034.28 1034.28 1034.33 1034.43 1034.54 1034.64 1034.70 1034.71 1034.66 1034.55 1034.40 1034.21 1034.02
1030.56 1031.10 1031.57 1031.99 1032.36 1032.69 1033.00 1033.29 1033.54 1033.77 1033.95 1034.09 1034.19 1034.25 1034.30 1034.35 1034.42 1034.51 1034.63 1034.77 1034.92 1035.06 1035.17 1035.22 1035.20 1035.13 1035.00 1034.84 1034.67 1034.53 1034.43 1034.39 1034.41 1034.47 1034.56 1034.66 1034.74 1034.78 1034.77 1034.72 1034.64 1034.52 1034.40
1030.68 1031.17 1031.60 1031.98 1032.33 1032.68 1033.03 1033.37 1033.70 1034.00 1034.26 1034.46 1034.61 1034.70 1034.75 1034.77 1034.78 1034.81 1034.87 1034.94 1035.03 1035.12 1035.19 1035.22 1035.20 1035.12 1034.99 1034.83 1034.66 1034.51 1034.40 1034.34 1034.34 1034.39 1034.48 1034.60 1034.71 1034.80 1034.85 1034.88 1034.86 1034.82 1034.76
1030.76 1031.20 1031.58 1031.93 1032.27 1032.64 1033.02 1033.42 1033.83 1034.21 1034.55 1034.82 1035.01 1035.12 1035.15 1035.14 1035.11 1035.06 1035.03 1035.03 1035.04 1035.06 1035.07 1035.06 1035.01 1034.91 1034.78 1034.61 1034.45 1034.29 1034.18 1034.12 1034.13 1034.20 1034.31 1034.46 1034.62 1034.77 1034.90 1035.00 1035.07 1035.10 1035.10
1030.83 1031.22 1031.56 1031.89 1032.23 1032.61 1033.03 1033.49 1033.95 1034.40 1034.79 1035.11 1035.32 1035.44 1035.46 1035.41 1035.32 1035.20 1035.09 1035.00 1034.93 1034.88 1034.83 1034.77 1034.69 1034.57 1034.42 1034.26 1034.09 1033.94 1033.84 1033.79 1033.81 1033.90 1034.05 1034.24 1034.46 1034.68 1034.88 1035.06 1035.20 1035.31 1035.37
1030.90 1031.26 1031.58 1031.90 1032.25 1032.64 1033.09 1033.58 1034.08 1034.56 1034.98 1035.31 1035.53 1035.63 1035.63 1035.54 1035.39 1035.22 1035.04 1034.89 1034.76 1034.64 1034.55 1034.44 1034.33 1034.19 1034.03 1033.85 1033.68 1033.53 1033.43 1033.39 1033.42 1033.53 1033.71 1033.94 1034.21 1034.49 1034.76 1035.01 1035.22 1035.39 1035.52
1031.01 1031.36 1031.68 1031.99 1032.35 1032.76 1033.22 1033.71 1034.22 1034.69 1035.10 1035.41 1035.61 1035.68 1035.65 1035.53 1035.35 1035.14 1034.93 1034.75 1034.58 1034.44 1034.32 1034.19 1034.05 1033.89 1033.71 1033.52 1033.33 1033.16 1033.04 1032.98 1033.00 1033.11 1033.29 1033.54 1033.84 1034.16 1034.48 1034.79 1035.06 1035.29 1035.48
1031.17 1031.52 1031.84 1032.18 1032.54 1032.96 1033.41 1033.89 1034.37 1034.80 1035.17 1035.44 1035.59 1035.63 1035.57 1035.43 1035.25 1035.04 1034.84 1034.66 1034.51 1034.38 1034.26 1034.13 1033.98 1033.80 1033.59 1033.36 1033.13 1032.92 1032.75 1032.64 1032.61 1032.68 1032.83 1033.06 1033.35 1033.68 1034.03 1034.37 1034.69 1034.99 1035.23
1031.38 1031.74 1032.09 1032.44 1032.83 1033.24 1033.68 1034.12 1034.55 1034.92 1035.22 1035.43 1035.53 1035.54 1035.46 1035.33 1035.17 1035.01 1034.86 1034.73 1034.63 1034.54 1034.45 1034.34 1034.19 1033.99 1033.75 1033.47 1033.17 1032.88 1032.62 1032.42 1032.30 1032.27 1032.35 1032.51 1032.76 1033.07 1033.41 1033.77 1034.13 1034.48 1034.79
1031.64 1032.03 1032.40 1032.79 1033.18 1033.60 1034.01 1034.42 1034.78 1035.09 1035.31 1035.46 1035.51 1035.49 1035.42 1035.32 1035.21 1035.12 1035.05 1035.01 1034.99 1034.97 1034.93 1034.85 1034.70 1034.49 1034.20 1033.85 1033.46 1033.05 1032.68 1032.35 1032.10 1031.94 1031.90 1031.96 1032.12 1032.37 1032.69 1033.04 1033.43 1033.81 1034.19
1031.97 1032.37 1032.78 1033.18 1033.60 1034.01 1034.41 1034.77 1035.08 1035.33 1035.49 1035.58 1035.60 1035.57 1035.52 1035.46 1035.43 1035.42 1035.45 1035.51 1035.58 1035.64 1035.66 1035.60 1035.46 1035.22 1034.88 1034.45 1033.96 1033.43 1032.91 1032.44 1032.03 1031.72 1031.53 1031.47 1031.52 1031.68 1031.94 1032.28 1032.66 1033.08 1033.52
1032.35 1032.77 1033.20 1033.63 1034.06 1034.48 1034.87 1035.20 1035.47 1035.66 1035.78 1035.83 1035.83 1035.81 1035.78 1035.78 1035.81 1035.89 1036.01 1036.16 1036.32 1036.44 1036.50 1036.47 1036.32 1036.05 1035.66 1035.16 1034.57 1033.93 1033.28 1032.66 1032.10 1031.64 1031.30 1031.09 1031.02 1031.09 1031.27 1031.56 1031.94 1032.38 1032.86
1032.79 1033.21 1033.65 1034.11 1034.55 1034.98 1035.36 1035.68 1035.92 1036.09 1036.18 1036.21 1036.20 1036.19 1036.19 1036.23 1036.32 1036.46 1036.65 1036.85 1037.06 1037.22 1037.30 1037.28 1037.13 1036.83 1036.40 1035.84 1035.17 1034.45 1033.70 1032.96 1032.28 1031.69 1031.21 1030.88 1030.69 1030.66 1030.76 1031.00 1031.35 1031.79 1032.30
1033.28 1033.69 1034.14 1034.60 1035.06 1035.49 1035.87 1036.19 1036.42 1036.57 1036.65 1036.67 1036.67 1036.66 1036.68 1036.74 1036.85 1037.02 1037.23 1037.46 1037.67 1037.84 1037.92 1037.89 1037.72 1037.41 1036.95 1036.36 1035.66 1034.89 1034.09 1033.29 1032.53 1031.85 1031.28 1030.85 1030.56 1030.43 1030.46 1030.64 1030.95 1031.37 1031.88
1033.78 1034.18 1034.62 1035.08 1035.55 1035.98 1036.36 1036.68 1036.91 1037.05 1037.13 1037.15 1037.15 1037.14 1037.15 1037.21 1037.32 1037.47 1037.66 1037.87 1038.05 1038.18 1038.23 1038.18 1037.99 1037.67 1037.21 1036.63 1035.94 1035.18 1034.38 1033.57 1032.80 1032.09 1031.47 1030.98 1030.63 1030.42 1030.38 1030.49 1030.75 1031.13 1031.62
1034.28 1034.66 1035.08 1035.53 1035.99 1036.42 1036.80 1037.11 1037.34 1037.48 1037.56 1037.58 1037.56 1037.54 1037.54 1037.57 1037.64 1037.74 1037.88 1038.01 1038.13 1038.20 1038.20 1038.11 1037.91 1037.59 1037.15 1036.61 1035.97 1035.27 1034.53 1033.77 1033.04 1032.35 1031.74 1031.23 1030.84 1030.59 1030.48 1030.53 1030.73 1031.06 1031.51
1034.73 1035.09 1035.49 1035.92 1036.35 1036.76 1037.13 1037.43 1037.65 1037.79 1037.86 1037.88 1037.85 1037.81 1037.78 1037.76 1037.77 1037.80 1037.85 1037.90 1037.94 1037.93 1037.87 1037.73 1037.51 1037.20 1036.80 1036.32 1035.77 1035.16 1034.51 1033.85 1033.20 1032.58 1032.01 1031.52 1031.13 1030.86 1030.72 1030.72 1030.85 1031.12 1031.52
1035.12 1035.45 1035.82 1036.22 1036.62 1037.00 1037.34 1037.62 1037.82 1037.95 1038.01 1038.01 1037.97 1037.91 1037.84 1037.77 1037.71 1037.67 1037.63 1037.59 1037.53 1037.44 1037.31 1037.13 1036.89 1036.60 1036.24 1035.83 1035.36 1034.87 1034.34 1033.79 1033.25 1032.72 1032.23 1031.79 1031.43 1031.16 1031.00 1030.97 1031.06 1031.28 1031.62
1035.43 1035.73 1036.07 1036.43 1036.79 1037.13 1037.43 1037.67 1037.84 1037.95 1037.99 1037.98 1037.92 1037.84 1037.74 1037.63 1037.52 1037.40 1037.29 1037.16 1037.02 1036.85 1036.66 1036.44 1036.18 1035.89 1035.56 1035.21 1034.83 1034.43 1034.02 1033.59 1033.16 1032.73 1032.33 1031.97 1031.66 1031.42 1031.28 1031.23 1031.30 1031.48 1031.77
1035.67 1035.95 1036.25 1036.57 1036.88 1037.16 1037.41 1037.60 1037.74 1037.82 1037.84 1037.81 1037.74 1037.64 1037.52 1037.38 1037.23 1037.07 1036.89 1036.71 1036.50 1036.27 1036.02 1035.76 1035.47 1035.17 1034.86 1034.55 1034.22 1033.90 1033.56 1033.23 1032.90 1032.58 1032.27 1031.99 1031.76 1031.58 1031.47 1031.45 1031.52 1031.69 1031.96
1035.87 1036.13 1036.40 1036.66 1036.91 1037.13 1037.32 1037.46 1037.55 1037.59 1037.58 1037.54 1037.46 1037.35 1037.22 1037.07 1036.90 1036.71 1036.50 1036.27 1036.02 1035.74 1035.44 1035.13 1034.81 1034.49 1034.17 1033.86 1033.56 1033.27 1032.99 1032.73 1032.47 1032.24 1032.02 1031.83 1031.68 1031.58 1031.54 1031.57 1031.68 1031.87 1032.14
Thickness
5447 5447 5446 5444 5443 5442 5441 5440 5440 5439 5438 5437 5436 5436 5435 5434 5433 5433 5433 5432 5431 5431 5430 5430 5431 5431 5431 5431 5431 5432 5432 5433 5436 5439 5438 5439 5440 5441 5443 5443 5444 5445 5447
5435 5434 5433 5432 5431 5430 5429 5428 5427 5426 5425 5424 5424 5423 5423 5422 5421 5420 5420 5419 5419 5418 5418 5418 5418 5418 5418 5418 5418 5418 5419 5420 5422 5425 5426 5425 5426 5428 5429 5430 5431 5432 5433
5423 5422 5421 5419 5418 5417 5416 5415 5413 5412 5411 5411 5411 5410 5409 5409 5408 5408 5407 5407 5407 5406 5406 5405 5405 5405 5405 5405 5405 5406 5406 5407 5408 5410 5412 5412 5413 5414 5415 5416 5417 5417 5419
5410 5409 5408 5407 5405 5404 5403 5402 5401 5400 5398 5397 5397 5396 5396 5395 5395 5394 5394 5394 5394 5394 5394 5394 5394 5394 5394 5393 5393 5393 5393 5394 5395 5396 5398 5399 5399 5400 5400 5401 5402 5403 5404
5398 5397 5396 5394 5392 5390 5389 5388 5387 5386 5385 5383 5383 5383 5383 5382 5382 5382 5382 5382 5383 5382 5382 5382 5382 5382 5383 5382 5382 5382 5382 5381 5382 5383 5384 5385 5385 5385 5386 5386 5387 5388 5390
5385 5384 5382 5380 5379 5377 5376 5375 5373 5372 5371 5370 5369 5370 5370 5370 5370 5370 5370 5370 5370 5370 5370 5370 5370 5370 5370 5370 5370 5370 5370 5370 5370 5370 5371 5372 5373 5373 5372 5372 5371 5373 5376
5372 5371 5369 5367 5366 5364 5363 5361 5360 5358 5357 5357 5357 5357 5357 5358 5358 5358 5358 5358 5358 5358 5358 5358 5357 5357 5357 5357 5357 5357 5357 5357 5358 5358 5359 5359 5359 5360 5359 5359 5359 5359 5361
5359 5358 5356 5354 5353 5351 5349 5348 5346 5345 5344 5344 5344 5344 5345 5346 5346 5346 5345 5346 5346 5347 5346 5345 5345 5345 5345 5345 5345 5345 5345 5345 5345 5345 5346 5347 5346 5346 5346 5347 5347 5345 5346
5345 5344 5342 5341 5339 5337 5336 5335 5333 5332 5332 5331 5332 5332 5332 5333 5333 5334 5333 5333 5334 5334 5334 5333 5333 5333 5334 5333 5333 5334 5334 5333 5333 5333 5333 5333 5333 5333 5332 5331 5330 5330 5333
5332 5330 5329 5327 5326 5324 5323 5321 5320 5320 5320 5319 5320 5320 5320 5321 5321 5321 5321 5321 5322 5322 5322 5322 5321 5322 5322 5321 5321 5322 5322 5322 5321 5320 5320 5319 5319 5319 5318 5318 5317 5316 5317
5318 5316 5315 5313 5312 5311 5309 5308 5307 5307 5306 5306 5307 5307 5307 5308 5309 5309 5310 5309 5309 5309 5310 5310 5309 5309 5309 5309 5309 5310 5310 5310 5309 5308 5307 5306 5306 5305 5305 5304 5304 5303 5304
5303 5301 5300 5299 5298 5297 5295 5294 5294 5293 5293 5293 5293 5294 5295 5295 5296 5297 5298 5298 5297 5296 5297 5297 5297 5297 5297 5297 5296 5297 5296 5295 5294 5294 5293 5293 5293 5293 5292 5291 5291 5290 5291
5288 5287 5286 5285 5284 5283 5282 5281 5280 5280 5280 5280 5281 5283 5283 5283 5284 5285 5285 5286 5285 5284 5285 5285 5285 5285 5285 5284 5283 5283 5282 5281 5281 5280 5280 5281 5280 5279 5278 5277 5277 5277 5278
5274 5274 5273 5272 5271 5269 5269 5269 5268 5268 5268 5268 5269 5270 5270 5271 5271 5272 5272 5272 5273 5272 5271 5271 5271 5271 5271 5271 5270 5269 5269 5268 5268 5268 5267 5267 5265 5264 5263 5263 5263 5263 5264
5261 5261 5260 5259 5258 5257 5256 5256 5257 5258 5258 5258 5259 5258 5258 5260 5261 5261 5261 5261 5260 5259 5258 5257 5256 5256 5256 5256 5256 5255 5255 5254 5254 5254 5253 5252 5251 5251 5250 5249 5249 5249 5250
5248 5248 5247 5246 5245 5244 5244 5244 5245 5246 5247 5248 5248 5247 5248 5249 5250 5249 5249 5249 5248 5247 5245 5243 5243 5242 5242 5242 5242 5241 5241 5240 5239 5239 5239 5238 5238 5238 5238 5237 5237 5237 5239
5236 5235 5234 5234 5233 5232 5231 5231 5231 5232 5233 5234 5234 5235 5236 5236 5236 5237 5236 5235 5234 5233 5230 5230 5230 5230 5230 5230 5229 5229 5229 5227 5226 5226 5226 5226 5226 5226 5225 5226 5226 5227 5228
5224 5224 5223 5222 5221 5220 5220 5219 5218 5218 5219 5219 5220 5221 5222 5222 5222 5223 5222 5221 5218 5217 5216 5216 5218 5218 5218 5218 5218 5217 5216 5215 5214 5214 5214 5214 5214 5214 5214 5215 5216 5216 5218
5214 5213 5212 5211 5210 5209 5208 5207 5206 5206 5206 5206 5207 5207 5207 5207 5207 5208 5207 5205 5205 5205 5204 5204 5204 5206 5206 5206 5206 5206 5205 5204 5204 5203 5203 5203 5203 5203 5204 5205 5205 5206 5206
5203 5204 5203 5201 5200 5198 5197 5196 5195 5194 5194 5193 5194 5194 5193 5193 5192 5192 5192 5192 5192 5192 5192 5193 5193 5193 5195 5195 5195 5195 5195 5194 5194 5193 5193 5193 5194 5193 5194 5194 5195 5196 5197
5194 5194 5193 5191 5189 5188 5187 5185 5184 5183 5182 5182 5182 5183 5184 5183 5181 5180 5180 5180 5180 5181 5181 5182 5183 5183 5184 5185 5185 5185 5185 5185 5184 5184 5184 5184 5184 5185 5185 5185 5185 5186 5187
5184 5183 5182 5180 5179 5177 5176 5174 5173 5172 5172 5171 5171 5170 5172 5171 5170 5170 5170 5170 5170 5171 5171 5172 5173 5174 5175 5175 5176 5175 5176 5176 5176 5176 5176 5176 5176 5176 5176 5176 5177 5177 5177
5173 5172 5170 5169 5167 5166 5165 5163 5162 5161 5160 5160 5160 5159 5159 5159 5160 5160 5160 5160 5160 5161 5162 5162 5164 5165 5166 5167 5167 5167 5167 5168 5169 5168 5168 5168 5168 5169 5169 5169 5169 5169 5170
5163 5161 5160 5159 5157 5156 5155 5154 5153 5152 5151 5150 5150 5150 5150 5150 5150 5150 5150 5151 5151 5152 5153 5154 5156 5157 5158 5159 5159 5159 5159 5160 5161 5161 5161 5161 5161 5162 5162 5163 5163 5164 5164
5153 5151 5150 5149 5148 5147 5146 5145 5144 5143 5142 5141 5141 5141 5140 5140 5140 5141 5141 5142 5143 5144 5145 5146 5148 5150 5152 5152 5152 5152 5153 5153 5154 5154 5154 5155 5155 5156 5156 5157 5157 5157 5157
5144 5143 5142 5141 5140 5138 5138 5137 5136 5134 5133 5133 5132 5131 5131 5131 5131 5132 5132 5133 5134 5135 5137 5139 5141 5143 5144 5145 5145 5146 5147 5147 5148 5148 5149 5149 5149 5150 5150 5150 5150 5150 5150